Location: Observatory Point
(48.1504°N, 123.6376°W)
Time: 12:08:35
(UTC-08:00)

Amateur Radio Satellites - All Passes

Search period start: 23 November 2017 11:38
Search period end: 24 November 2017 11:38
Location: Observatory Point, 48.1504°N, 123.6376°W

Satellite Date Start Highest point End Downlink Frequencies (MHz)
Time Altitude Azimuth
POLYITAN 1 23 Nov 11:39:44 11:43:54 53° 260° (W) 11:48:03 437.675
Max Valier Satellite 23 Nov 11:44:55 11:45:51 11° 300° (WNW) 11:46:46 145.860
FALCONSAT 3 23 Nov 11:49:36 11:50:17 10° 189° (S) 11:50:58 435.103
LO-87 23 Nov 11:51:03 11:54:35 69° 287° (WNW) 11:58:05 145.935 - 145.965
BUGSAT 1 23 Nov 11:55:29 11:59:30 47° 71° (ENE) 12:03:30 437.445
ESTCUBE 1 23 Nov 12:01:31 12:06:06 89° 274° (W) 12:10:38 437.505/2401.250
QB50P2 23 Nov 12:03:56 12:07:36 28° 265° (W) 12:11:18 145.880/145.840
O/OREOS (USA 219) 23 Nov 12:04:22 12:07:05 16° 99° (E) 12:09:49 437.305
AO-7 23 Nov 12:08:44 12:13:56 19° 39° (NE) 12:19:08 .
VELOX 1 23 Nov 12:11:12 12:14:35 21° 92° (E) 12:17:57 145.980
BEESAT 2 23 Nov 12:15:57 12:19:36 32° 242° (WSW) 12:23:10 435.950
Oscar 19 23 Nov 12:26:11 12:31:11 58° 70° (ENE) 12:36:13 437.125/150
SPROUT 23 Nov 12:47:49 12:52:06 74° 103° (ESE) 12:56:19 437.525
DX 1 23 Nov 12:49:34 12:51:24 12° 88° (E) 12:53:14 434.975-435.025
M-CUBED/EXP-1 PRIME 23 Nov 12:50:00 12:53:02 23° 57° (ENE) 12:56:16 437.505
DUCHIFAT 1 23 Nov 12:51:00 12:53:16 14° 271° (W) 12:55:32 145.980
50 SAT 23 Nov 12:54:37 12:55:30 11° 90° (E) 12:56:24 437.505
AO-91 23 Nov 12:56:49 13:02:14 86° 257° (WSW) 13:07:36 145.960
AO-85 23 Nov 13:00:44 13:05:02 36° 241° (WSW) 13:09:37 145.980
Gurwin Techsat 1B 23 Nov 13:12:05 13:17:25 82° 257° (WSW) 13:22:47 435.225
UKube-1 23 Nov 13:25:05 13:28:04 18° 92° (E) 13:31:02 .
BUGSAT 1 23 Nov 13:32:09 13:35:05 18° 268° (W) 13:38:01 437.445
ESTCUBE 1 23 Nov 13:40:06 13:42:12 13° 303° (WNW) 13:44:19 437.505/2401.250
O/OREOS (USA 219) 23 Nov 13:41:21 13:45:56 69° 298° (WNW) 13:50:33 437.305
VELOX 1 23 Nov 13:46:58 13:51:16 47° 290° (WNW) 13:55:31 145.980
YUBILEINY 23 Nov 13:48:01 13:51:18 12° 44° (NE) 13:54:34 435.215
AO-7 23 Nov 13:57:01 14:05:05 60° 62° (ENE) 14:13:12 .
Oscar 19 23 Nov 14:07:00 14:10:52 21° 268° (W) 14:14:46 437.125/150
NO-84 23 Nov 14:10:35 14:13:35 24° 132° (SE) 14:16:46 435.350 FM
DX 1 23 Nov 14:23:44 14:28:09 79° 285° (WNW) 14:32:31 434.975-435.025
M-CUBED/EXP-1 PRIME 23 Nov 14:23:51 14:27:14 35° 258° (WSW) 14:30:55 437.505
ITAMSAT 1 23 Nov 14:24:27 14:29:26 47° 67° (ENE) 14:34:27 435.822/435.867
50 SAT 23 Nov 14:24:44 14:27:53 48° 287° (WNW) 14:30:59 437.505
SPROUT 23 Nov 14:25:09 14:27:25 14° 301° (WNW) 14:29:41 437.525
AO-91 23 Nov 14:36:33 14:39:21 14° 274° (W) 14:42:08 145.960
Gurwin Techsat 1B 23 Nov 14:56:03 14:58:12 12° 274° (W) 15:00:21 435.225
UKube-1 23 Nov 15:00:10 15:04:24 52° 290° (WNW) 15:08:36 .
MOZHAYETS 4 23 Nov 15:19:04 15:23:33 52° 100° (E) 15:28:01
BEESAT 23 Nov 15:21:01 15:25:30 40° 98° (E) 15:29:58 436.000
O/OREOS (USA 219) 23 Nov 15:24:06 15:26:16 13° 319° (NW) 15:28:26 437.305
ITUPSAT 1 23 Nov 15:32:31 15:37:10 50° 100° (E) 15:41:47 437.325
DOVE 4 23 Nov 15:34:13 15:38:56 37° 66° (ENE) 15:43:46 437.250
CUBESAT XI-V 23 Nov 15:38:21 15:42:01 22° 92° (E) 15:45:40 437.345
YUBILEINY 23 Nov 15:42:25 15:50:57 48° 71° (ENE) 15:59:24 435.215
NO-84 23 Nov 15:46:49 15:50:35 68° 332° (NNW) 15:54:38 435.350 FM
AO-7 23 Nov 15:50:43 15:58:14 37° 263° (W) 16:05:49 .
DX 1 23 Nov 16:02:12 16:03:34 11° 305° (NW) 16:04:55 434.975-435.025
RS-15 23 Nov 16:03:56 16:07:50 12° 90° (E) 16:11:44 29.354- 29.394
ITAMSAT 1 23 Nov 16:04:40 16:09:06 27° 266° (W) 16:13:33 435.822/435.867
KAITUO 1B 23 Nov 16:14:51 16:16:04 11° 60° (ENE) 16:17:16 145.475/437.950
CUTE-I 23 Nov 16:17:18 16:21:25 23° 59° (ENE) 16:25:33 437.470
XW-2D 23 Nov 16:34:56 16:38:00 25° 67° (ENE) 16:41:07 145.860 - 145.880
CUTE 1.7 + AOD 2 23 Nov 16:49:21 16:50:43 11° 57° (ENE) 16:52:04 437.475
XW-2B 23 Nov 16:49:30 16:52:52 33° 69° (ENE) 16:56:17 145.730 - 145.750
HO-68 23 Nov 16:49:43 16:55:41 29° 55° (NE) 17:01:39 435.675
KKS-1 23 Nov 16:51:10 16:54:54 25° 94° (E) 16:58:36 437.445
NUDT-PHONESAT 23 Nov 16:52:23 16:55:25 25° 67° (ENE) 16:58:29 437.300
MOZHAYETS 4 23 Nov 16:56:57 17:00:22 21° 298° (WNW) 17:03:48
BEESAT 23 Nov 16:59:05 17:03:08 28° 297° (WNW) 17:07:09 436.000
STARS 23 Nov 17:08:01 17:10:45 16° 90° (E) 17:13:28 437.465
ITUPSAT 1 23 Nov 17:10:57 17:14:41 23° 299° (WNW) 17:18:25 437.325
DOVE 4 23 Nov 17:11:53 17:16:35 35° 266° (W) 17:21:26 437.250
SEEDS 23 Nov 17:13:44 17:15:33 13° 58° (ENE) 17:17:21 437.485
XW-2C 23 Nov 17:14:54 17:18:36 67° 74° (ENE) 17:22:21 145.795 - 145.815
CUBESAT XI-V 23 Nov 17:15:06 17:19:38 48° 290° (WNW) 17:24:09 437.345
LilacSat-2 23 Nov 17:20:26 17:24:12 83° 73° (ENE) 17:27:59 437.200
XW-2F 23 Nov 17:22:53 17:26:36 77° 74° (ENE) 17:30:21 145.980 - 146.000
NO-84 23 Nov 17:24:52 17:28:27 32° 353° (N) 17:32:14 435.350 FM
UWE-3 23 Nov 17:29:44 17:30:55 11° 57° (ENE) 17:32:06 435.000/436.395/437.385
YUBILEINY 23 Nov 17:39:29 17:47:45 46° 273° (W) 17:55:59 435.215
KAITUO 1B 23 Nov 17:45:49 17:49:29 73° 257° (WSW) 17:53:12 145.475/437.950
CUTE-I 23 Nov 17:55:41 18:01:01 64° 258° (WSW) 18:06:23 437.470
AO-73 23 Nov 18:02:46 18:03:56 11° 57° (ENE) 18:05:06 145.935
RS-15 23 Nov 18:05:31 18:17:13 53° 113° (ESE) 18:28:49 29.354- 29.394
XW-2D 23 Nov 18:08:49 18:12:05 28° 265° (W) 18:15:23 145.860 - 145.880
CUBEBUG 2 23 Nov 18:11:44 18:16:01 44° 70° (ENE) 18:20:11 437.445
Oscar 11 23 Nov 18:16:00 18:17:06 11° 56° (ENE) 18:18:13 .
CUTE 1.7 + AOD 2 23 Nov 18:21:38 18:25:50 87° 76° (ENE) 18:30:06 437.475
XW-2B 23 Nov 18:24:16 18:27:08 21° 267° (W) 18:30:02 145.730 - 145.750
NUDT-PHONESAT 23 Nov 18:26:06 18:29:12 26° 265° (W) 18:32:21 437.300
KKS-1 23 Nov 18:27:25 18:31:34 38° 292° (WNW) 18:35:41 437.445
HO-68 23 Nov 18:35:39 18:42:50 72° 255° (WSW) 18:50:05 435.675
STARS 23 Nov 18:43:08 18:47:29 60° 288° (WNW) 18:51:47 437.465
AAUSAT CUBESAT 2 23 Nov 18:44:29 18:48:24 43° 70° (ENE) 18:52:21 437.432
SEEDS 23 Nov 18:46:25 18:50:35 83° 257° (WSW) 18:54:49 437.485
ZACube-1 23 Nov 18:46:39 18:50:25 31° 68° (ENE) 18:54:08 437.345
XW-2C 23 Nov 18:52:12 18:53:13 11° 272° (W) 18:54:16 145.795 - 145.815
XW-2A 23 Nov 19:02:12 19:05:31 76° 74° (ENE) 19:08:51 145.665 - 145.685
UWE-3 23 Nov 19:02:17 19:06:42 81° 73° (ENE) 19:11:00 435.000/436.395/437.385
NO-84 23 Nov 19:02:42 19:06:33 37° 14° (NNE) 19:10:31 435.350 FM
FO-29 23 Nov 19:09:07 19:13:37 16° 81° (E) 19:17:58 435.910
STRAND 1 23 Nov 19:19:17 19:24:05 39° 97° (E) 19:28:50 437.568
AO-73 23 Nov 19:35:14 19:39:30 85° 73° (ENE) 19:43:42 145.935
ISS 23 Nov 19:41:36 19:43:43 16° 137° (SE) 19:45:50 437.550
Oscar 11 23 Nov 19:48:12 19:52:30 80° 73° (ENE) 19:56:49 .
CUBEBUG 2 23 Nov 19:49:15 19:52:48 22° 267° (W) 19:56:18 437.445
CUTE 1.7 + AOD 2 23 Nov 20:01:41 20:02:17 10° 274° (W) 20:02:55 437.475
RS-15 23 Nov 20:17:25 20:29:41 63° 319° (NW) 20:41:45 29.354- 29.394
AAUSAT CUBESAT 2 23 Nov 20:20:59 20:24:03 20° 268° (W) 20:27:08 437.432
DELFI C3 23 Nov 20:22:28 20:26:11 40° 70° (ENE) 20:29:56 145.870
ZACube-1 23 Nov 20:22:58 20:26:42 28° 265° (W) 20:30:22 437.345
nSIGHT-1 23 Nov 20:22:58 20:26:00 39° 147° (SSE) 20:29:02 .
SO-50 23 Nov 20:23:27 20:26:17 17° 111° (ESE) 20:29:07 436.795
HO-68 23 Nov 20:28:08 20:31:51 15° 276° (W) 20:35:34 435.675
O/OREOS (USA 219) 23 Nov 20:31:27 20:32:40 11° 38° (NE) 20:33:53 437.305
NO-84 23 Nov 20:40:01 20:44:14 82° 213° (SSW) 20:48:30 435.350 FM
UWE-3 23 Nov 20:42:06 20:43:41 12° 272° (W) 20:45:14 435.000/436.395/437.385
EO-88 23 Nov 20:42:17 20:45:31 31° 69° (ENE) 20:48:46 145.990 - 145.960
Max Valier Satellite 23 Nov 20:50:39 20:54:12 55° 73° (ENE) 20:57:47 145.860
FO-29 23 Nov 20:52:08 21:00:03 72° 102° (ESE) 21:07:26 435.910
STRAND 1 23 Nov 20:58:40 21:03:11 32° 296° (WNW) 21:07:41 437.568
AO-73 23 Nov 21:15:29 21:16:19 10° 273° (W) 21:17:08 145.935
ISS 23 Nov 21:16:30 21:19:46 80° 155° (SSE) 21:23:03 437.550
Oscar 11 23 Nov 21:27:39 21:29:12 12° 273° (W) 21:30:45 .
ESTCUBE 1 23 Nov 21:29:25 21:32:21 17° 60° (ENE) 21:35:19 437.505/2401.250
DELFI C3 23 Nov 21:58:07 22:01:05 20° 268° (W) 22:04:04 145.870
nSIGHT-1 23 Nov 21:59:00 22:02:11 56° 346° (NNW) 22:05:21 .
SO-50 23 Nov 22:01:43 22:06:11 73° 309° (NW) 22:10:44 436.795
O/OREOS (USA 219) 23 Nov 22:08:40 22:13:10 55° 60° (ENE) 22:17:36 437.305
SPROUT 23 Nov 22:11:32 22:13:04 12° 57° (ENE) 22:14:37 437.525
EO-88 23 Nov 22:16:25 22:19:13 21° 267° (W) 22:22:01 145.990 - 145.960
NO-84 23 Nov 22:18:16 22:21:06 17° 232° (SW) 22:23:56 435.350 FM
UNISAT 6 23 Nov 22:19:19 22:23:37 89° 306° (NW) 22:27:53 437.425
PRISM 23 Nov 22:22:01 22:25:51 34° 97° (E) 22:29:38 437.425
TIGRISAT 23 Nov 22:22:48 22:27:06 89° 246° (WSW) 22:31:20 435.000
Max Valier Satellite 23 Nov 22:26:46 22:28:22 12° 271° (W) 22:29:58 145.860
LO-87 23 Nov 22:29:42 22:33:18 78° 75° (ENE) 22:36:54 145.935 - 145.965
RS-15 23 Nov 22:33:58 22:45:05 37° 350° (N) 22:55:52 29.354- 29.394
FO-29 23 Nov 22:37:44 22:44:25 32° 303° (WNW) 22:50:51 435.910
AIST 2D 23 Nov 22:48:15 22:51:00 21° 93° (E) 22:53:46 435.315
ISS 23 Nov 22:53:15 22:56:25 44° 354° (N) 22:59:36 437.550
ESTCUBE 1 23 Nov 23:04:14 23:08:41 65° 259° (W) 23:13:11 437.505/2401.250
PCSat 23 Nov 23:05:46 23:10:10 26° 109° (ESE) 23:14:36 145.827
EO-79 23 Nov 23:06:03 23:08:02 13° 89° (E) 23:10:01 145.935-145.965
NANOSAT C BR1 23 Nov 23:07:30 23:09:06 12° 88° (E) 23:10:39 145.865
VELOX 1 23 Nov 23:11:27 23:15:17 29° 65° (ENE) 23:19:09 145.980
POLYITAN 1 23 Nov 23:21:27 23:24:26 19° 92° (E) 23:27:25 437.675
nSIGHT-1 23 Nov 23:35:38 23:38:44 44° 6° (N) 23:41:50 .
SPROUT 23 Nov 23:43:59 23:48:16 87° 75° (ENE) 23:52:35 437.525
SO-50 23 Nov 23:44:15 23:47:25 18° 332° (NNW) 23:50:38 436.795
QB50P2 23 Nov 23:44:25 23:48:18 35° 97° (E) 23:52:08 145.880/145.840
DX 1 23 Nov 23:47:52 23:50:54 19° 60° (ENE) 23:53:57 434.975-435.025
O/OREOS (USA 219) 23 Nov 23:48:58 23:52:10 19° 259° (W) 23:55:20 437.305
PRISM 23 Nov 23:57:30 00:00:59 26° 295° (WNW) 00:04:27 437.425
UNISAT 6 23 Nov 23:58:05 23:59:39 12° 303° (WNW) 00:01:14 437.425
TIGRISAT 24 Nov 00:01:32 00:03:07 12° 303° (WNW) 00:04:40 435.000
AIST 2D 24 Nov 00:21:06 00:24:13 29° 291° (WNW) 00:27:19 435.315
UKube-1 24 Nov 00:22:33 00:26:05 25° 64° (ENE) 00:29:38 .
DUCHIFAT 1 24 Nov 00:28:40 00:32:51 71° 103° (ESE) 00:36:59 145.980
ISS 24 Nov 00:29:59 00:33:14 58° 15° (NNE) 00:36:28 437.550
Oscar 19 24 Nov 00:35:17 00:38:14 15° 88° (E) 00:41:11 437.125/150
EO-79 24 Nov 00:40:05 00:44:16 69° 287° (WNW) 00:48:25 145.935-145.965
NANOSAT C BR1 24 Nov 00:41:07 00:45:19 75° 285° (WNW) 00:49:29 145.865
AO-91 24 Nov 00:45:29 00:48:07 15° 86° (E) 00:50:36 145.960
VELOX 1 24 Nov 00:47:36 00:51:39 34° 264° (W) 00:55:44 145.980
PCSat 24 Nov 00:47:52 00:53:12 59° 309° (NW) 00:58:35 145.827
RS-15 24 Nov 00:49:58 01:01:25 43° 24° (NNE) 01:12:17 29.354- 29.394
MOZHAYETS 4 24 Nov 00:50:53 00:52:16 11° 55° (NE) 00:53:38
50 SAT 24 Nov 00:54:21 00:57:35 85° 76° (ENE) 01:00:51 437.505
POLYITAN 1 24 Nov 00:56:26 01:00:28 47° 290° (WNW) 01:04:29 437.675
BEESAT 24 Nov 00:56:48 00:58:22 12° 53° (NE) 00:59:56 436.000
ITUPSAT 1 24 Nov 01:07:41 01:10:08 14° 56° (NE) 01:12:36 437.325
BUGSAT 1 24 Nov 01:08:38 01:12:33 47° 100° (E) 01:16:25 437.445
nSIGHT-1 24 Nov 01:11:54 01:15:07 76° 205° (SSW) 01:18:19 .
QB50P2 24 Nov 01:20:28 01:23:57 26° 295° (WNW) 01:27:25 145.880/145.840
DX 1 24 Nov 01:22:22 01:26:41 57° 259° (WSW) 01:31:01 434.975-435.025
SPROUT 24 Nov 01:23:49 01:24:47 11° 273° (W) 01:25:44 437.525
Gurwin Techsat 1B 24 Nov 01:24:55 01:29:36 30° 95° (E) 01:34:14 435.225
SO-50 24 Nov 01:29:19 01:29:43 10° 357° (N) 01:30:07 436.795
AO-7 24 Nov 01:57:06 02:00:35 13° 83° (E) 02:04:03 .
UKube-1 24 Nov 01:57:53 02:01:56 39° 262° (W) 02:06:01 .
M-CUBED/EXP-1 PRIME 24 Nov 01:59:31 02:01:13 12° 93° (E) 02:02:55 437.505
DUCHIFAT 1 24 Nov 02:05:44 02:07:59 14° 301° (WNW) 02:10:12 145.980
ISS 24 Nov 02:06:34 02:09:38 37° 214° (SW) 02:12:40 437.550
BEESAT 2 24 Nov 02:10:46 02:13:22 17° 112° (ESE) 02:15:59 435.950
Oscar 19 24 Nov 02:13:00 02:18:11 82° 287° (WNW) 02:23:22 437.125/150
AO-91 24 Nov 02:20:36 02:25:10 61° 288° (WNW) 02:29:13 145.960
MOZHAYETS 4 24 Nov 02:24:04 02:28:37 75° 75° (ENE) 02:33:11
BEESAT 3 24 Nov 02:27:08 02:31:07 73° 125° (SE) 02:35:08 437.485
BEESAT 24 Nov 02:30:32 02:35:17 71° 72° (ENE) 02:40:03 436.000
PCSat 24 Nov 02:34:11 02:37:45 17° 332° (NNW) 02:41:22 145.827
ITAMSAT 1 24 Nov 02:35:46 02:37:34 12° 86° (E) 02:39:22 435.822/435.867
ITUPSAT 1 24 Nov 02:42:28 02:47:15 88° 76° (ENE) 02:52:04 437.325
BUGSAT 1 24 Nov 02:44:45 02:47:35 18° 298° (WNW) 02:50:21 437.445
CUBESAT XI-V 24 Nov 02:44:50 02:48:54 32° 66° (ENE) 02:53:01 437.345
nSIGHT-1 24 Nov 02:49:01 02:50:54 15° 223° (SW) 02:52:47 .
RS-15 24 Nov 03:03:24 03:15:27 89° 234° (SW) 03:26:48 29.354- 29.394
Gurwin Techsat 1B 24 Nov 03:04:39 03:09:40 44° 293° (WNW) 03:14:41 435.225
SO-50 24 Nov 03:09:32 03:12:10 15° 22° (NNE) 03:14:49 436.795
AO-85 24 Nov 03:18:53 03:22:14 28° 117° (ESE) 03:25:45 145.980
M-CUBED/EXP-1 PRIME 24 Nov 03:31:34 03:36:09 86° 107° (ESE) 03:40:49 437.505
BEESAT 2 24 Nov 03:46:39 03:50:39 63° 311° (NW) 03:54:42 435.950
AO-7 24 Nov 03:46:49 03:55:07 62° 104° (ESE) 04:03:22 .
KKS-1 24 Nov 03:52:13 03:56:21 37° 67° (ENE) 04:00:29 437.445
Oscar 19 24 Nov 03:54:00 03:56:44 15° 306° (NW) 03:59:28 437.125/150
MOZHAYETS 4 24 Nov 04:04:00 04:06:19 14° 272° (W) 04:08:38
BEESAT 3 24 Nov 04:06:03 04:09:05 20° 326° (NW) 04:12:07 437.485
STARS 24 Nov 04:07:31 04:11:03 24° 63° (ENE) 04:14:35 437.465
BEESAT 24 Nov 04:10:40 04:13:34 16° 271° (W) 04:16:27 436.000
ITAMSAT 1 24 Nov 04:12:38 04:17:53 80° 105° (ESE) 04:23:05 435.822/435.867
CUBESAT XI-V 24 Nov 04:22:06 04:26:14 33° 264° (W) 04:30:25 437.345
PCSat 24 Nov 04:23:22 04:23:33 10° 358° (N) 04:23:45 145.827
ITUPSAT 1 24 Nov 04:23:44 04:25:44 12° 273° (W) 04:27:46 437.325
YUBILEINY 24 Nov 04:47:55 04:56:08 47° 87° (E) 05:04:25 435.215
SO-50 24 Nov 04:49:16 04:53:44 46° 44° (NE) 04:58:15 436.795
AO-85 24 Nov 04:58:48 05:02:30 37° 318° (NW) 05:06:25 145.980
STRAND 1 24 Nov 05:02:38 05:05:15 14° 54° (NE) 05:07:53 437.568
DOVE 4 24 Nov 05:06:40 05:11:48 56° 99° (E) 05:16:37 437.250
M-CUBED/EXP-1 PRIME 24 Nov 05:07:11 05:09:57 16° 307° (NW) 05:12:45 437.505
RS-15 24 Nov 05:17:03 05:26:16 28° 258° (WSW) 05:35:09 29.354- 29.394
BEESAT 2 24 Nov 05:26:48 05:29:09 15° 332° (NNW) 05:31:32 435.950
FO-29 24 Nov 05:27:14 05:30:31 14° 42° (NE) 05:33:54 435.910
KKS-1 24 Nov 05:29:10 05:32:59 27° 265° (W) 05:36:48 437.445
XW-2D 24 Nov 05:37:21 05:40:23 22° 93° (E) 05:43:24 145.860 - 145.880
AO-7 24 Nov 05:40:02 05:47:32 39° 305° (NW) 05:55:02 .
STARS 24 Nov 05:42:56 05:47:09 43° 261° (W) 05:51:24 437.465
XW-2B 24 Nov 05:52:03 05:55:27 30° 96° (E) 05:58:50 145.730 - 145.750
NUDT-PHONESAT 24 Nov 05:52:10 05:55:04 21° 93° (E) 05:57:58 437.300
ITAMSAT 1 24 Nov 05:53:17 05:56:44 18° 304° (WNW) 06:00:12 435.822/435.867
HO-68 24 Nov 06:00:35 06:05:27 19° 88° (E) 06:10:17 435.675
CUTE 1.7 + AOD 2 24 Nov 06:04:34 06:06:18 12° 87° (E) 06:08:02 437.475
PCSat 24 Nov 06:06:11 06:09:26 16° 25° (NNE) 06:12:41 145.827
CUTE-I 24 Nov 06:09:04 06:14:06 39° 97° (E) 06:19:05 437.470
XW-2C 24 Nov 06:17:37 06:21:24 60° 101° (E) 06:25:11 145.795 - 145.815
LilacSat-2 24 Nov 06:23:57 06:27:49 77° 103° (ESE) 06:31:40 437.200
XW-2F 24 Nov 06:25:01 06:28:50 68° 102° (ESE) 06:32:37 145.980 - 146.000
SEEDS 24 Nov 06:27:56 06:30:01 13° 88° (E) 06:32:05 437.485
SO-50 24 Nov 06:30:01 06:34:03 30° 243° (WSW) 06:38:07 436.795
STRAND 1 24 Nov 06:38:29 06:43:37 79° 74° (ENE) 06:48:48 437.568
AO-85 24 Nov 06:42:33 06:44:08 12° 341° (NNW) 06:45:46 145.980
YUBILEINY 24 Nov 06:44:37 06:52:58 47° 290° (WNW) 07:01:26 435.215
DOVE 4 24 Nov 06:45:00 06:49:04 24° 299° (WNW) 06:52:58 437.250
KAITUO 1B 24 Nov 06:46:50 06:50:38 86° 284° (WNW) 06:54:25 145.475/437.950
UWE-3 24 Nov 06:50:03 06:51:34 12° 88° (E) 06:53:04 435.000/436.395/437.385
FO-29 24 Nov 07:07:02 07:13:41 48° 64° (ENE) 07:20:58 435.910
XW-2D 24 Nov 07:11:10 07:14:37 33° 291° (WNW) 07:18:04 145.860 - 145.880
AO-73 24 Nov 07:21:09 07:22:47 12° 88° (E) 07:24:24 145.935
NUDT-PHONESAT 24 Nov 07:25:38 07:28:59 32° 291° (WNW) 07:32:19 437.300
XW-2B 24 Nov 07:26:23 07:29:31 25° 293° (WNW) 07:32:39 145.730 - 145.750
Oscar 11 24 Nov 07:33:42 07:35:16 12° 87° (E) 07:36:50 .
AO-7 24 Nov 07:34:49 07:38:01 13° 329° (NNW) 07:41:13 .
CUBEBUG 2 24 Nov 07:35:03 07:39:11 58° 101° (E) 07:43:16 437.445
CUTE 1.7 + AOD 2 24 Nov 07:38:22 07:42:40 77° 285° (WNW) 07:46:56 437.475
UNISAT 6 24 Nov 07:46:34 07:49:22 16° 60° (ENE) 07:52:07 437.425
HO-68 24 Nov 07:46:55 07:54:10 88° 105° (ESE) 08:01:21 435.675
PCSat 24 Nov 07:48:53 07:54:11 49° 48° (NE) 07:59:26 145.827
CUTE-I 24 Nov 07:49:16 07:54:05 35° 296° (WNW) 07:58:53 437.470
TIGRISAT 24 Nov 07:49:57 07:52:43 16° 60° (ENE) 07:55:26 435.000
XW-2A 24 Nov 07:52:34 07:55:49 45° 99° (E) 07:59:05 145.665 - 145.685
XW-2C 24 Nov 07:53:06 07:55:09 14° 298° (WNW) 07:57:11 145.795 - 145.815
AAUSAT CUBESAT 2 24 Nov 07:57:50 08:01:56 49° 99° (E) 08:05:59 437.432
LilacSat-2 24 Nov 08:00:07 08:01:31 12° 300° (WNW) 08:02:56 437.200
XW-2F 24 Nov 08:00:44 08:02:25 13° 300° (WNW) 08:04:07 145.980 - 146.000
SEEDS 24 Nov 08:01:55 08:06:09 69° 287° (WNW) 08:10:23 437.485
ZACube-1 24 Nov 08:06:41 08:10:36 39° 98° (E) 08:14:32 437.345
STRAND 1 24 Nov 08:20:23 08:23:26 16° 272° (W) 08:26:28 437.568
UWE-3 24 Nov 08:24:24 08:28:33 74° 285° (WNW) 08:32:41 435.000/436.395/437.385
BEESAT 2 24 Nov 08:47:13 08:48:19 11° 20° (NNE) 08:49:23 435.950
YUBILEINY 24 Nov 08:49:38 08:52:40 12° 317° (NW) 08:55:42 435.215
FO-29 24 Nov 08:52:18 08:58:47 42° 266° (W) 09:05:57 435.910
AO-73 24 Nov 08:55:22 08:59:31 73° 285° (WNW) 09:03:40 145.935
BEESAT 3 24 Nov 09:03:27 09:06:38 22° 36° (NE) 09:09:48 437.485
Oscar 11 24 Nov 09:07:38 09:11:59 81° 283° (WNW) 09:16:19 .
CUBEBUG 2 24 Nov 09:12:46 09:15:22 16° 299° (WNW) 09:17:58 437.445
PRISM 24 Nov 09:14:13 09:18:05 39° 68° (ENE) 09:21:58 437.425
CUTE 1.7 + AOD 2 24 Nov 09:16:59 09:17:43 10° 304° (NW) 09:18:28 437.475
UNISAT 6 24 Nov 09:21:05 09:25:36 68° 258° (WSW) 09:30:02 437.425
TIGRISAT 24 Nov 09:24:25 09:28:55 69° 258° (WSW) 09:33:21 435.000
XW-2A 24 Nov 09:26:24 09:28:10 14° 297° (WNW) 09:29:57 145.665 - 145.685
AIST 2D 24 Nov 09:26:32 09:28:28 14° 63° (ENE) 09:30:26 435.315
DELFI C3 24 Nov 09:29:58 09:33:45 39° 98° (E) 09:37:29 145.870
PCSat 24 Nov 09:32:38 09:37:23 32° 248° (WSW) 09:42:08 145.827
AAUSAT CUBESAT 2 24 Nov 09:34:02 09:37:02 19° 297° (WNW) 09:40:02 437.432
HO-68 24 Nov 09:35:37 09:41:04 24° 308° (NW) 09:46:30 435.675
FALCONSAT 3 24 Nov 09:37:20 09:38:09 11° 172° (S) 09:38:59 435.103
EO-88 24 Nov 09:40:31 09:43:35 25° 95° (E) 09:46:38 145.990 - 145.960
ZACube-1 24 Nov 09:43:26 09:46:42 23° 295° (WNW) 09:49:58 437.345
Max Valier Satellite 24 Nov 09:50:21 09:53:55 45° 99° (E) 09:57:27 145.860
DUCHIFAT 1 24 Nov 09:51:31 09:52:33 11° 57° (ENE) 09:53:36 145.980
EO-79 24 Nov 10:01:32 10:04:16 17° 61° (ENE) 10:07:01 145.935-145.965
NANOSAT C BR1 24 Nov 10:02:32 10:05:04 16° 60° (ENE) 10:07:35 145.865
AO-85 24 Nov 10:05:27 10:08:44 19° 31° (NNE) 10:12:11 145.980
POLYITAN 1 24 Nov 10:17:09 10:20:31 23° 64° (ENE) 10:23:52 437.675
BEESAT 2 24 Nov 10:23:25 10:27:12 35° 43° (NE) 10:30:54 435.950
QB50P2 24 Nov 10:40:00 10:44:00 41° 69° (ENE) 10:48:00 145.880/145.840
BEESAT 3 24 Nov 10:40:35 10:44:30 58° 236° (SW) 10:48:19 437.485
Oscar 11 24 Nov 10:46:06 10:47:22 11° 304° (WNW) 10:48:39 .
PRISM 24 Nov 10:50:13 10:53:28 22° 267° (W) 10:56:46 437.425
ESTCUBE 1 24 Nov 10:53:30 10:56:57 21° 92° (E) 11:00:23 437.505/2401.250
AIST 2D 24 Nov 10:57:56 11:01:17 46° 261° (W) 11:04:40 435.315
DELFI C3 24 Nov 11:05:11 11:08:16 21° 296° (WNW) 11:11:19 145.870
Gurwin Techsat 1B 24 Nov 11:13:25 11:15:38 13° 52° (NE) 11:17:51 435.225
EO-88 24 Nov 11:14:03 11:17:11 27° 292° (WNW) 11:20:19 145.990 - 145.960
AO-7 24 Nov 11:14:22 11:15:41 10° 26° (NNE) 11:17:00 .
FALCONSAT 3 24 Nov 11:15:29 11:16:19 11° 188° (S) 11:17:09 435.103
DUCHIFAT 1 24 Nov 11:23:18 11:27:31 82° 73° (ENE) 11:31:44 145.980
Max Valier Satellite 24 Nov 11:25:04 11:27:24 16° 297° (WNW) 11:29:44 145.860
LO-87 24 Nov 11:26:06 11:29:36 57° 101° (E) 11:33:04 145.935 - 145.965
SPROUT 24 Nov 11:28:03 11:29:24 11° 87° (E) 11:30:45 437.525
